Change the Weather History Date:

Monday, September 3, 2012

  Actual Average Record
Temperature  
Mean Temperature 76 °F 68 °F  
Max Temperature 89 °F 78 °F 95 °F (1953)
Min Temperature 62 °F 57 °F 32 °F (1946)
Degree Days  
Heating Degree Days 0 2  
Month to date heating degree days 0 4  
Since 1 July heating degree days 9 24  
Cooling Degree Days 11 4  
Month to date cooling degree days 30 12  
Year to date cooling degree days 992 637  
Growing Degree Days 26 (Base 50)    
Moisture  
Dew Point 64 °F    
Average Humidity 70    
Maximum Humidity 90    
Minimum Humidity 50    
Precipitation  
Precipitation 0.00 in 0.13 in 1.42 in (1988)
Month to date precipitation 0.00 0.40  
Year to date precipitation 22.22 25.12  
Snow  
Snow 0.00 in 0.00 in 0.00 in ()
Month to date snowfall 0.0 0.0  
Since 1 July snowfall 0.0 0.0  
Since 1 September snowfall 0.0 0.0  
Snow Depth 0.00 in    
Sea Level Pressure  
Sea Level Pressure 29.94 in    
Wind  
Wind Speed 6 mph (ENE)    
Max Wind Speed 12 mph    
Max Gust Speed 15 mph    
Visibility 10 miles    
Events      
T = Trace of Precipitation, MM = Missing Value Source: NWS Daily Summary

Daily Weather History Graph

Daily Weather History Graph

Search for Another Location

Airport or City:

Trip Planner

Search our weather history database for the weather conditions in past years. The results will help you decide how hot, cold, wet, or windy it might be!

Date:

Astronomy

Sep. 03, 2012 Rise Set
Actual Time 7:09 AM EDT 8:12 PM EDT
Civil Twilight 6:40 AM EDT 8:41 PM EDT
Nautical Twilight 6:05 AM EDT 9:15 PM EDT
Astronomical Twilight 5:29 AM EDT 9:51 PM EDT
Moon 9:24 PM EDT (9/3) 10:23 AM EDT (9/3)
Length of Visible Light 14h 00m
Length of Day
13h 03m
Waning Gibbous, 90% of the Moon is Illuminated
Sep 3
Waning Gibbous
Sep 8
Last Quarter
Sep 15
New
Sep 22
First Quarter
Sep 29
Full

Hourly Weather History & Observations

Time (EDT) Temp. Heat Index Dew Point Humidity Pressure Visibility Wind Dir Wind Speed Gust Speed Precip Events Conditions
12:53 AM 68.0 °F - 62.1 °F 81% 29.99 in 10.0 mi ENE 9.2 mph - N/A   Clear
1:53 AM 66.0 °F - 61.0 °F 84% 29.98 in 10.0 mi East 9.2 mph - N/A   Clear
2:53 AM 66.0 °F - 60.1 °F 81% 29.96 in 10.0 mi East 5.8 mph - N/A   Clear
3:53 AM 64.0 °F - 60.1 °F 87% 29.96 in 10.0 mi NE 6.9 mph - N/A   Clear
4:53 AM 64.0 °F - 59.0 °F 84% 29.97 in 10.0 mi NE 5.8 mph - N/A   Clear
5:53 AM 63.0 °F - 59.0 °F 87% 29.96 in 10.0 mi East 6.9 mph - N/A   Clear
6:53 AM 63.0 °F - 59.0 °F 87% 29.97 in 10.0 mi NE 5.8 mph - N/A   Partly Cloudy
7:53 AM 63.0 °F - 59.0 °F 87% 29.97 in 10.0 mi ENE 5.8 mph - N/A   Partly Cloudy
8:53 AM 68.0 °F - 60.1 °F 76% 29.98 in 10.0 mi ENE 4.6 mph - N/A   Partly Cloudy
9:53 AM 72.0 °F - 62.1 °F 71% 29.96 in 10.0 mi East 6.9 mph - N/A   Clear
10:53 AM 77.0 °F - 66.0 °F 69% 29.97 in 10.0 mi East 6.9 mph - N/A   Clear
11:53 AM 81.0 °F 83.8 °F 68.0 °F 65% 29.97 in 10.0 mi Variable 3.5 mph - N/A   Partly Cloudy
12:53 PM 84.0 °F 87.0 °F 68.0 °F 58% 29.95 in 10.0 mi Variable 5.8 mph - N/A   Scattered Clouds
1:53 PM 86.0 °F 89.4 °F 68.0 °F 55% 29.94 in 10.0 mi East 8.1 mph - N/A   Partly Cloudy
2:53 PM 87.1 °F 90.6 °F 68.0 °F 53% 29.93 in 10.0 mi East 3.5 mph - N/A   Scattered Clouds
3:53 PM 88.0 °F 90.7 °F 66.9 °F 49% 29.91 in 10.0 mi Variable 4.6 mph - N/A   Scattered Clouds
4:53 PM 88.0 °F 90.7 °F 66.9 °F 49% 29.90 in 10.0 mi East 5.8 mph - N/A   Scattered Clouds
5:53 PM 88.0 °F 91.4 °F 68.0 °F 51% 29.88 in 10.0 mi East 5.8 mph - N/A   Scattered Clouds
6:53 PM 86.0 °F 90.1 °F 69.1 °F 57% 29.88 in 10.0 mi East 5.8 mph - N/A   Scattered Clouds
7:53 PM 82.9 °F 86.5 °F 69.1 °F 63% 29.88 in 10.0 mi ENE 4.6 mph - N/A   Mostly Cloudy
8:53 PM 80.1 °F 82.7 °F 68.0 °F 67% 29.90 in 10.0 mi NE 5.8 mph - N/A   Mostly Cloudy
9:53 PM 78.1 °F - 66.0 °F 66% 29.91 in 10.0 mi ENE 3.5 mph - N/A   Mostly Cloudy
10:53 PM 77.0 °F - 66.0 °F 69% 29.91 in 10.0 mi East 4.6 mph - N/A   Mostly Cloudy
11:53 PM 75.0 °F - 66.0 °F 73% 29.91 in 10.0 mi ESE 6.9 mph - N/A   Scattered Clouds